2024/01/26 00:00:00,91.0,-3.1
2024/01/26 00:10:00,91.0,-3.1
2024/01/26 00:20:00,91.0,-3.1
2024/01/26 00:30:00,91.1,-3.1
2024/01/26 00:40:00,90.9,-3.1
2024/01/26 00:50:00,90.9,-3.1
2024/01/26 01:00:00,91.0,-2.8
2024/01/26 01:10:00,90.8,-3.1
2024/01/26 01:20:00,90.8,-3.1
2024/01/26 01:30:00,91.0,-3.0
2024/01/26 01:40:00,91.3,-2.8
2024/01/26 01:50:00,91.3,-2.9
2024/01/26 02:00:00,91.4,-3.0
2024/01/26 02:10:00,91.3,-2.9
2024/01/26 02:20:00,91.3,-3.0
2024/01/26 02:30:00,91.3,-3.0
2024/01/26 02:40:00,91.2,-3.2
2024/01/26 02:50:00,91.0,-3.2
2024/01/26 03:00:00,90.8,-3.1
2024/01/26 03:10:00,90.5,-3.4
2024/01/26 03:20:00,90.4,-3.4
2024/01/26 03:30:00,90.2,-3.2
2024/01/26 03:40:00,90.0,-3.4
2024/01/26 03:50:00,89.7,-3.5
2024/01/26 04:00:00,89.6,-3.4
2024/01/26 04:10:00,89.6,-3.3
2024/01/26 04:20:00,89.6,-3.3
2024/01/26 04:30:00,89.4,-3.7
2024/01/26 04:40:00,89.2,-3.6
2024/01/26 04:50:00,89.0,-3.7
2024/01/26 05:00:00,88.9,-3.5
2024/01/26 05:10:00,88.6,-3.7
2024/01/26 05:20:00,88.4,-3.4
2024/01/26 05:30:00,88.2,-3.5
2024/01/26 05:40:00,88.0,-3.5
2024/01/26 05:50:00,87.8,-3.5
2024/01/26 06:00:00,87.7,-3.4
2024/01/26 06:10:00,87.5,-3.7
2024/01/26 06:20:00,87.3,-3.5
2024/01/26 06:30:00,87.1,-3.5
2024/01/26 06:40:00,87.1,-3.2
2024/01/26 06:50:00,87.0,-3.4
2024/01/26 07:00:00,86.7,-3.3
2024/01/26 07:10:00,86.6,-3.3
2024/01/26 07:20:00,86.5,-3.4
2024/01/26 08:50:00,---,-1.7
2024/01/26 09:00:00,85.6,-1.4
2024/01/26 09:10:00,85.4,-1.2
2024/01/26 09:20:00,85.3,-1.2
2024/01/26 09:30:00,85.2,-1.0
2024/01/26 09:40:00,85.0,-0.4
2024/01/26 09:50:00,84.9,-0.2
2024/01/26 10:00:00,84.7, 0.1
2024/01/26 10:10:00,84.7,-0.7
2024/01/26 10:20:00,84.6,-0.7
2024/01/26 10:30:00,84.5,-0.3
2024/01/26 10:40:00,84.1, 0.3
2024/01/26 10:50:00,83.9, 0.5
2024/01/26 11:00:00,83.8, 0.8
2024/01/26 11:10:00,83.7, 1.5
2024/01/26 11:20:00,83.5, 2.2
2024/01/26 11:30:00,83.4, 0.9
2024/01/26 11:40:00,83.2, 2.0
2024/01/26 11:50:00,83.2, 3.2
2024/01/26 12:00:00,83.0, 2.5
2024/01/26 12:10:00,83.1, 1.1
2024/01/26 12:20:00,83.0, 0.7
2024/01/26 12:30:00,83.1, 1.8
2024/01/26 12:40:00,83.0, 1.1
2024/01/26 12:50:00,83.0, 1.1
2024/01/26 13:00:00,82.7, 2.4
2024/01/26 13:10:00,82.6, 1.9
2024/01/26 13:20:00,82.6, 0.7
2024/01/26 13:30:00,82.5, 0.6
2024/01/26 13:40:00,82.4, 1.1
2024/01/26 13:50:00,82.5, 0.6
2024/01/26 14:00:00,82.6, 0.5
2024/01/26 14:10:00,82.5, 1.7
2024/01/26 14:20:00,82.4, 1.7
2024/01/26 14:30:00,82.4, 0.6
2024/01/26 14:40:00,82.3, 1.1
2024/01/26 14:50:00,82.5, 0.1
2024/01/26 15:00:00,82.7, 0.1
2024/01/26 15:10:00,83.0, 0.4
2024/01/26 15:20:00,83.2, 0.2
2024/01/26 15:30:00,83.4,-0.3
2024/01/26 15:40:00,83.5,-0.5
2024/01/26 15:50:00,83.3,-0.3
2024/01/26 16:00:00,83.3,-0.5
2024/01/26 16:10:00,83.2,-0.6
2024/01/26 16:20:00,83.1,-0.3
2024/01/26 16:30:00,83.0,-0.5
2024/01/26 16:40:00,82.9,-1.0
2024/01/26 16:50:00,82.8,-1.1
2024/01/26 17:00:00,82.6,-1.2
2024/01/26 17:10:00,82.6,-1.4
2024/01/26 17:20:00,82.5,-1.4
2024/01/26 17:30:00,82.4,-1.6
2024/01/26 17:40:00,82.2,-1.8
2024/01/26 17:50:00,82.2,-1.9
2024/01/26 18:00:00,82.1,-1.9
2024/01/26 18:10:00,82.0,-1.7
2024/01/26 18:20:00,81.8,-1.8
2024/01/26 18:30:00,81.7,-1.8
2024/01/26 18:40:00,81.6,-1.6
2024/01/26 18:50:00,81.6,-1.7
2024/01/26 19:00:00,81.5,-1.7
2024/01/26 19:10:00,81.4,-1.8
2024/01/26 19:20:00,81.3,-1.8
2024/01/26 19:30:00,81.2,-1.8
2024/01/26 19:40:00,81.2,-1.9
2024/01/26 19:50:00,81.1,-1.8
2024/01/26 20:00:00,81.0,-1.7
2024/01/26 20:10:00,81.0,-1.8
2024/01/26 20:20:00,80.8,-1.7
2024/01/26 20:30:00,80.7,-1.8
2024/01/26 20:40:00,80.6,-1.9
2024/01/26 20:50:00,80.5,-1.9
2024/01/26 21:00:00,80.5,-1.8
2024/01/26 21:10:00,80.4,-1.9
2024/01/26 21:20:00,80.3,-1.8
2024/01/26 21:30:00,80.2,-1.8
2024/01/26 21:40:00,80.1,-1.9
2024/01/26 21:50:00,80.0,-1.9
2024/01/26 22:00:00,80.0,-1.9
2024/01/26 22:10:00,80.0,-1.9
2024/01/26 22:20:00,80.1,-1.8
2024/01/26 22:30:00,80.2,-1.8
2024/01/26 22:40:00,80.2,-1.8
2024/01/26 22:50:00,80.1,-1.9
2024/01/26 23:00:00,80.0,-1.7
2024/01/26 23:10:00,79.9,-1.7
2024/01/26 23:20:00,79.9,-1.7
2024/01/26 23:30:00,79.7,-1.5
2024/01/26 23:40:00,79.7,-1.5
2024/01/26 23:50:00,79.7,-1.8
